Regional Weather Roundup
Issued by NWS Wilmington, NC

Home | Current Version | Previous Version | Text Only | Print | Product List | Glossary On
Versions: 1 2 3 4 5 6 7 8 9 10 11 12 13 14 15 16 17 18 19 20 21 22 23 24 25 26 27 28 29 30 31 32 33 34 35 36 37 38 39 40 41 42 43 44 45 46 47 48 49 50
000
ASUS42 KILM 300313
RWRILM
RWRILM
REGIONAL HOURLY WEATHER ROUNDUP
NATIONAL WEATHER SERVICE WILMINGTON NC
1100 PM EDT MON JUN 29 2015

NOTE: "FAIR" INDICATES FEW OR NO CLOUDS BELOW 12,000 FEET WITH NO
SIGNIFICANT WEATHER AND/OR OBSTRUCTIONS TO VISIBILITY.

...............WFO WILMINGTON COUNTY WARNING AREA...............

......COASTAL NC AND SC COUNTIES......

CITY           SKY/WX    TMP DP  RH WIND       PRES   REMARKS
WILMINGTON     PTCLDY    77  70  79 S6        29.97S
N MYRTLE BEACH CLEAR     81  72  74 SW15      29.98R
MYRTLE BEACH   NOT AVBL

......INLAND NC AND SC COUNTIES.......

CITY           SKY/WX    TMP DP  RH WIND       PRES   REMARKS
LUMBERTON      CLEAR     73  67  81 CALM      29.96R
ELIZABETHTOWN  CLEAR     75  67  77 S3        29.97R
WHITEVILLE     PTCLDY    75  69  81 S3        29.97S
FLORENCE       CLEAR     76  60  57 SW3       29.97R
DARLINGTON     CLEAR     75  63  64 SW5       29.98S

....................REST OF NORTH CAROLINA......................

.........EASTERN NC.........

CITY           SKY/WX    TMP DP  RH WIND       PRES   REMARKS
CAPE HATTERAS  MOCLDY    76  73  91 CALM      29.98S
JACKSONVILLE   CLEAR     73  66  78 SW5       29.98R
MOREHEAD CITY  PTCLDY    79  73  82 SW10      29.98R
KENANSVILLE    CLEAR     73  70  91 CALM      29.98R
NEW BERN       CLEAR     75  72  90 S3        29.98S
ELIZABETH CITY PTCLDY    76  71  85 SE7       29.98S

.........CENTRAL NC.........

CITY           SKY/WX    TMP DP  RH WIND       PRES   REMARKS
RALEIGH DURHAM PTCLDY    75  65  70 S3        29.97R
ROCKY MOUNT    CLEAR     73  68  84 CALM      29.97R
ROANOKE RAPIDS NOT AVBL
FAYETTEVILLE   CLEAR     76  65  68 SW6       29.96R
HOFFMAN        CLEAR     74  62  66 S6        30.00R

.........WESTERN NC.........

CITY           SKY/WX    TMP DP  RH WIND       PRES   REMARKS
CHARLOTTE      MOCLDY    76  58  53 W6        29.99R
GREENSBORO     PTCLDY    75  60  59 S7        29.97R
HICKORY        NOT AVBL
BOONE          NOT AVBL
ASHEVILLE      NOT AVBL

.....................REST OF SOUTH CAROLINA.....................

.........EASTERN SC.........

CITY           SKY/WX    TMP DP  RH WIND       PRES   REMARKS
CHARLESTON     CLEAR     78  71  79 SW9       30.00R
BEAUFORT MCAS  CLEAR     79  70  74 S5        30.01R
HILTON HEAD    CLEAR     81  75  83 S3        30.03R

.........CENTRAL SC.........

CITY           SKY/WX    TMP DP  RH WIND       PRES   REMARKS
COLUMBIA       PTCLDY    75  65  70 S8        29.98R
ORANGEBURG     CLEAR     73  61  65 CALM      30.00R
SUMTER SHAW    CLEAR     77  61  58 W5        29.97R

.........WESTERN SC.........

CITY           SKY/WX    TMP DP  RH WIND       PRES   REMARKS
GREENVILLE     NOT AVBL
ROCK HILL      PTCLDY    70  62  76 SW3       30.00R
ANDERSON       PTCLDY    75  62  64 S5        30.00R
CLEMSON        NOT AVBL
GREENWOOD      MOCLDY    74  64  71 SW5       30.01R


...................COASTAL AND OFFSHORE REPORTS..................

................LOCAL PIERS AND NC RESERVE................


STATION/POSITION TIME  SKY/WX   TEMP    WIND        PRES    VSBY
                                AIR SEA DIR/SP/G
                 (UTC)          (F)     (DEG/KT/KT) (MB)    (MI)
JOHNY MRCER PIER 0200            79 83  220/  8/ 10 1014.4R
NC RESRV MASNBRO NOT AVBL
OCEAN CREST PIER NOT AVBL
SPRINGMAID  PIER 0200            81 84  190/ 20/ 23 1015.1R


................COASTAL AND OFFSHORE BUOYS................


STATION/POSITION TIME  SKY/WX   TEMP    WIND        PRES    VSBY
                                AIR SEA DIR/SP/G
                 (UTC)          (F)     (DEG/KT/KT) (MB)    (MI)
DIMNDSHOAL 41025 0250            80 80  270/  8/ 10 1015.3R
WVE H/P(F/S)=  4/ 8 WND WVE H/P(F/S)=  2/ 4 SWL H/P/D(F/S/D)=  3/140/ 8

CAPE LOOKOUT     0300            79     230/  8/ 10 1015.0R
ONSLOW BAY 41036 NOT AVBL
5 WRITEBCH 41038 0208            80 79  230/ 14/ 19 1014.8R
MASONBORO  41110 0219               79                N/A
WVE H/P(F/S)=  3/ 8 WND WVE H/P(F/S)=  3/ 8

WILM HARBR 41108 0211               81                N/A
WVE H/P(F/S)=  4/ 8 WND WVE H/P(F/S)=  3/ 8

27WRITEBCH 41037 0200               81  240/ 14/ 16   N/A
FRYING PAN 41013 0250            82 80  220/ 16/ 17 1015.7R
WVE H/P(F/S)=  4/ 7 WND WVE H/P(F/S)=  3/ 6 SWL H/P/D(F/S/D)=  3/140/ 7

SUNST NRSH 41024 NOT AVBL
CAPRS NRSH 41029 0208            81     230/ 17/ 21 1015.8R
EDISTO     41004 0250            82 83  210/ 16/ 17 1015.6R
WVE H/P(F/S)=  4/ 8 WND WVE H/P(F/S)=  2/ 4 SWL H/P/D(F/S/D)=  3/ 8



..........OFFSHORE BUOYS BEYOND 100 NM OFFSHORE...........
.....IN A TRIANGLE---HAT TO BERMUDA TO BAHAMAS TO HAT.....


STATION/POSITION TIME  SKY/WX   TEMP    WIND        PRES    VSBY
                                AIR SEA DIR/SP/G
                 (UTC)          (F)     (DEG/KT/KT) (MB)    (MI)
150E HAT   41001 NOT AVBL
W BERMUDA  41048 0250            81 81  170/ 10/ 12 1021.1F
WVE H/P(F/S)=  5/ 8 WND WVE H/P(F/S)=  2/ 4 SWL H/P/D(F/S/D)=  5/240/ 8

ATLANTIC S 41049 0250            82 83  110/  6/  8 1026.3R
WVE H/P(F/S)=  3/ 8 WND WVE H/P(F/S)=  2/ 4 SWL H/P/D(F/S/D)=  3/120/ 8

E BAHAMAS  41046 0250            83 83  110/ 16/ 17 1022.6R
WVE H/P(F/S)=  5/ 8 WND WVE H/P(F/S)=  3/ 6 SWL H/P/D(F/S/D)=  3/110/ 8

NE BAHAMAS 41047 0250            77 83  290/ 23/ 27 1023.7R
WVE H/P(F/S)=  5/ 7 WND WVE H/P(F/S)=  3/ 6 SWL H/P/D(F/S/D)=  3/140/ 7

120E CANVRL41010 0220            81 84  250/ 10/ 12 1018.2R

END


USA.gov is the U.S. government's official web portal to all federal, state and local government web resources and services.